This demonstration page uses our WeatherBlox Daily Observations layout. Learn more.

Left ArrowRight Arrow

30.21309, -93.2044

Hourly Observations for July 22, 2021

Temp ( °F °C ) Dew Point ( °F °C ) Humidity (%) Winds ( mph kmh ) Pressure ( in mb ) Visibility ( mi km ) Precip ( " mm )
12:15 am 00:15 Clear 76 24.7 73 22.7 89 89 Calm 30.08 1019 10 16 0.00 0.00
12:35 am 00:35 Clear 77 24.9 73 22.9 89 89 Calm 30.08 1019 10 16 0.00 0.00
12:55 am 00:55 Clear 76 24.3 73 22.9 92 92 Calm 30.08 1019 10 16 0.00 0.00
1:15 am 01:15 Clear 75 23.8 73 22.6 93 93 SE 3 6 30.08 1019 10 16 0.00 0.00
1:35 am 01:35 Clear 75 23.9 73 22.8 94 94 Calm 30.07 1018 10 16 0.00 0.00
1:55 am 01:55 Clear 76 24.2 73 22.9 92 92 Calm 30.08 1019 10 16 0.00 0.00
2:15 am 02:15 Clear 75 23.8 73 22.6 93 93 SE 3 6 30.07 1018 10 16 0.00 0.00
2:35 am 02:35 Clear 74 23.6 73 22.6 94 94 Calm 30.07 1018 7 11 0.00 0.00
2:55 am 02:55 Clear 74 23.6 73 22.5 94 94 Calm 30.08 1019 10 16 0.00 0.00
3:15 am 03:15 Clear 75 23.9 73 22.7 93 93 Calm 30.08 1019 10 16 0.00 0.00
3:35 am 03:35 Clear 75 23.9 73 22.7 93 93 Calm 30.08 1019 10 16 0.00 0.00
3:55 am 03:55 Clear 75 23.8 73 22.6 93 93 Calm 30.09 1019 10 16 0.00 0.00
4:15 am 04:15 Partly Cloudy 75 23.8 73 22.6 93 93 Calm 30.09 1019 10 16 0.00 0.00
4:35 am 04:35 Partly Cloudy 77 24.8 73 23 90 90 Calm 30.09 1019 10 16 0.00 0.00
4:55 am 04:55 Clear 74 23.6 73 22.5 94 94 Calm 30.09 1019 7 11 0.00 0.00
5:15 am 05:15 Clear 75 23.7 73 22.7 94 94 E 3 6 30.09 1019 10 16 0.00 0.00
5:35 am 05:35 Partly Cloudy 74 23.3 72 22.4 95 95 E 3 6 30.10 1019 7 11 0.00 0.00
6:00 am 06:00 Partly Cloudy 73 23 72 22 94 94 Calm 30.10 1019 10 16 0.00 0.00
6:50 am 06:50 Partly Cloudy 75 24 73 23 94 94 Calm 30.11 1020 10 16 0.00 0.00
7:55 am 07:55 Partly Cloudy 79 26 75 24 89 89 Calm 30.12 1020 10 16 0.00 0.00
8:45 am 08:45 Mostly Sunny 82 28 75 24 79 79 WSW 6 9 30.14 1021 10 16 0.00 0.00
9:45 am 09:45 Mostly Cloudy 84 29 73 23 70 70 SW 6 9 30.15 1021 10 16 0.00 0.00
10:47 am 10:47 Mostly Cloudy 88 31 73 23 62 62 SW 8 13 30.17 1022 10 16 0.00 0.00
11:45 am 11:45 Mostly Cloudy 88 31 73 23 62 62 WSW 8 13 30.17 1022 10 16 0.00 0.00
12:50 pm 12:50 Mostly Cloudy 90 32 73 23 59 59 SW 8 13 30.16 1021 10 16 0.00 0.00
1:45 pm 13:45 Mostly Cloudy 82 28 77 25 84 84 SSE 6 9 30.16 1021 10 16 0.00 0.00
2:50 pm 14:50 Partly Cloudy 88 31 73 23 62 62 SSW 10 17 30.14 1021 10 16 0.00 0.00
3:55 pm 15:55 Partly Cloudy 86 30 73 23 66 66 SW 3 6 30.14 1021 10 16 0.00 0.00
4:50 pm 16:50 Partly Cloudy 84 29 73 23 70 70 Calm 30.12 1020 10 16 0.00 0.00
5:55 pm 17:55 Partly Cloudy 88 31 73 23 62 62 S 5 7 30.10 1019 10 16 0.00 0.00
6:50 pm 18:50 Partly Cloudy 90 32 72 22 55 55 SSW 8 13 30.10 1019 10 16 0.00 0.00
7:55 pm 19:55 Mostly Sunny 86 30 73 23 66 66 SSW 8 13 30.12 1020 10 16 0.00 0.00
8:50 pm 20:50 Mostly Clear 84 29 75 24 74 74 SSW 7 11 30.13 1020 10 16 0.00 0.00
9:50 pm 21:50 Mostly Clear 82 28 75 24 79 79 S 6 9 30.15 1021 10 16 0.00 0.00
10:15 pm 22:15 Clear 81 27.3 76 24.5 85 85 SSW 6 9 30.15 1021 10 16 0.00 0.00
10:35 pm 22:35 Clear 79 26.3 76 24.4 89 89 S 6 9 30.15 1021 10 16 0.00 0.00
10:55 pm 22:55 Clear 80 26.5 76 24.6 89 89 S 3 6 30.15 1021 10 16 0.00 0.00
11:15 pm 23:15 Clear 79 26.3 76 24.6 90 90 S 5 7 30.15 1021 10 16 0.00 0.00
11:35 pm 23:35 Clear 81 27.2 76 24.6 86 86 SSW 5 7 30.14 1021 10 16 0.00 0.00
11:55 pm 23:55 Clear 79 26.2 76 24.6 91 91 S 6 9 30.14 1021 10 16 0.00 0.00

Powered by AerisWeather